CW2224 Weather Reports


Display with metric or nautical units.
time (UTC)temp
F
wind
direction
speed
MPH
gust
MPH
rain 1hr
in
rain 24hr
in
rain mn
in
humidity
%
barometer
mb
20260503214849 82 339 5.0 10.0 0.00 0.00 0.00 41 1010.2
20260503213330 81 1 5.0 10.0 0.00 0.00 0.00 43 1010.2
20260503211831 80 2 3.0 11.0 0.00 0.00 0.00 41 1010.5
20260503210338 80 331 5.0 11.0 0.00 0.00 0.00 41 1010.7
20260503204839 79 356 7.0 13.0 0.00 0.00 0.00 43 1010.8
20260503203345 78 304 5.0 12.0 0.00 0.00 0.00 43 1011.0
20260503201822 78 308 3.0 11.0 0.00 0.00 0.00 44 1011.2
20260503200327 78 325 4.0 12.0 0.00 0.00 0.00 45 1011.2
20260503194829 77 30 7.0 12.0 0.00 0.00 0.00 47 1011.5
20260503193349 76 356 7.0 12.0 0.00 0.00 0.00 49 1011.6
20260503191829 75 358 5.0 11.0 0.00 0.00 0.00 50 1011.8
20260503190327 75 357 4.0 10.0 0.00 0.00 0.00 51 1012.0
20260503184904 73 324 6.0 10.0 0.00 0.00 0.00 56 1011.9
20260503183339 73 352 5.0 11.0 0.00 0.00 0.00 57 1012.3
20260503181823 71 4 4.0 9.0 0.00 0.00 0.00 59 1012.3
20260503180325 70 338 4.0 10.0 0.00 0.00 0.00 61 1012.5
20260503174852 68 334 4.0 9.0 0.00 0.00 0.00 64 1012.7
20260503173331 67 3 4.0 8.0 0.00 0.00 0.00 64 1012.7
20260503171832 66 1 4.0 8.0 0.00 0.00 0.00 66 1012.9
20260503170343 64 358 3.0 6.0 0.00 0.00 0.00 69 1012.9
20260503150322 55 117 1.0 4.0 0.00 0.00 0.00 88 1013.2
20260503130326 54 88 0.0 0.0 0.00 0.00 0.00 84 1013.0
20260503110322 56 113 0.0 0.0 0.00 0.00 0.00 80 1013.0
20260503090354 59 98 0.0 2.0 0.00 0.00 0.00 70 1013.3
20260503080325 60 98 0.0 0.0 0.00 0.00 0.00 66 1013.4
20260503071830 61 100 2.0 3.0 0.00 0.00 0.00 65 1013.4
20260503070337 62 84 2.0 5.0 0.00 0.00 0.00 64 1013.3
20260503054829 64 54 2.0 5.0 0.00 0.00 0.00 59 1013.1
20260503053331 65 50 3.0 5.0 0.00 0.00 0.00 59 1013.0
20260503051854 66 63 2.0 5.0 0.00 0.00 0.00 57 1013.1
20260503050339 66 56 1.0 5.0 0.00 0.00 0.00 54 1013.1
20260503044845 67 51 4.0 9.0 0.00 0.00 0.00 53 1013.1
20260503043322 67 36 2.0 6.0 0.00 0.00 0.00 53 1012.8
20260503041852 68 36 3.0 5.0 0.00 0.00 0.00 52 1012.6
20260503040331 68 55 3.0 6.0 0.00 0.00 0.00 54 1012.4
20260503034829 68 36 3.0 6.0 0.00 0.00 0.00 57 1012.1
20260503033336 70 56 2.0 6.0 0.00 0.00 0.00 56 1011.9
20260503031823 71 41 3.0 6.0 0.00 0.00 0.00 55 1011.9
20260503030328 72 5 4.0 9.0 0.00 0.00 0.00 54 1011.6
20260503024834 74 12 4.0 10.0 0.00 0.00 0.00 53 1011.5
20260503023331 75 36 5.0 11.0 0.00 0.00 0.00 53 1011.2
20260503021903 76 27 4.0 11.0 0.00 0.00 0.00 52 1011.3
20260503020337 76 343 5.0 12.0 0.00 0.00 0.00 51 1011.3
20260503014824 76 10 6.0 12.0 0.00 0.00 0.00 49 1011.4
20260503013326 77 337 4.0 13.0 0.00 0.00 0.00 48 1011.6
20260503011827 78 14 5.0 13.0 0.00 0.00 0.00 47 1011.7
20260503010353 77 347 8.0 11.0 0.00 0.00 0.00 47 1011.7
20260503004833 77 36 5.0 11.0 0.00 0.00 0.00 48 1011.6
20260503003334 77 31 6.0 13.0 0.00 0.00 0.00 47 1011.7
20260503001836 78 326 7.0 14.0 0.00 0.00 0.00 47 1011.7
20260503000328 78 343 6.0 12.0 0.00 0.00 0.00 48 1011.9
20260502234830 78 36 6.0 14.0 0.00 0.00 0.00 47 1012.3
20260502233330 77 327 8.0 13.0 0.00 0.00 0.00 48 1012.3
20260502231848 76 8 8.0 13.0 0.00 0.00 0.00 49 1012.6
20260502230327 76 330 8.0 16.0 0.00 0.00 0.00 48 1012.8
20260502224829 76 27 5.0 14.0 0.00 0.00 0.00 49 1012.9
20260502223330 76 351 9.0 17.0 0.00 0.00 0.00 51 1013.1
20260502221833 75 14 7.0 17.0 0.00 0.00 0.00 52 1013.2
20260502220334 75 356 7.0 15.0 0.00 0.00 0.00 56 1013.3